Regional Weather Roundup
Issued by NWS Binghamton, NY

Home | Current Version | Previous Version | Text Only | Print | Product List | Glossary On
Versions: 1 2 3 4 5 6 7 8 9 10 11 12 13 14 15 16 17 18 19 20 21 22 23 24 25 26 27 28 29 30 31 32 33 34 35 36 37 38 39 40 41 42 43 44 45 46 47 48 49 50
000
ASUS41 KBGM 292210
RWRBGM

REGIONAL WEATHER ROUNDUP
NATIONAL WEATHER SERVICE BINGHAMTON NY
600 PM EDT SAT APR 29 2017

Note: "fair" indicates few or no clouds below 12,000 feet with no
significant weather and/or obstructions to visibility.

* = Station(s) that does not report precipitation, such as rain,
snow, etc, also no thunder or fog.

NYZ009-015>018-022>025-036-037-044>046-055>057-062-292300
...Central New York...

CITY           SKY/WX    TMP DP  RH WIND       PRES   REMARKS
Binghamton     CLOUDY    56  48  74 NW9       30.10S
Cortland       CLOUDY    57  45  62 W7        30.11F
Dansville      CLOUDY    58  46  64 N7        30.15R
Elmira         CLOUDY    60  51  72 NW7       30.12R
Seneca Falls   CLOUDY    57  43  58 NW12      30.15R
Ithaca         CLOUDY    57  47  69 W13       30.14R
Hamilton       CLOUDY    55  43  62 NW9G16    30.09F
Monticello     CLOUDY    68  55  64 W12G22    30.05F
Norwich        CLOUDY    59  45  58 NW7       30.09S
Penn Yan       CLOUDY    57  40  52 NW8       30.14R
Rome           CLOUDY    54  37  52 W15G24    30.12F
Sidney         CLOUDY    59  48  67 NW5       30.07F
Syracuse       CLOUDY    53  41  63 NW14      30.11F
$$

PAZ038>040-043-044-047-048-072-292300
...Northeast Pennsylvania...

CITY           SKY/WX    TMP DP  RH WIND       PRES   REMARKS
Hazleton       PTSUNNY   70  59  68 W8        30.11S
Scranton       CLOUDY    73  58  59 W12       30.05R
$$
&&
KEY
WCI = Wind Chill Index
VSB = Visibility
HX  = Heat Index
$$



USA.gov is the U.S. government's official web portal to all federal, state and local government web resources and services.